Location: Unspecified
(42.9300°N, 71.1866°W)
Time: 16:44:36
(UTC-04:00)

Envisat - Visible Passes

Search period start: 27 April 2015 00:00
Search period end: 07 May 2015 00:00
Orbit: 765 x 766 km, 98.3° (Epoch: 27 April)

Date Brightness Start Highest point End Pass type
(mag) Time Alt. Az. Time Alt. Az. Time Alt. Az.
27 Apr 3.2 21:23:59 30° SE 21:26:17 54° ENE 21:31:15 10° N visible
27 Apr 5.0 23:04:11 17° WSW 23:05:43 19° W 23:09:08 10° NW visible
28 Apr 4.2 20:46:51 15° ESE 20:49:52 26° ENE 20:54:05 10° N visible
28 Apr 4.0 22:27:03 31° SW 22:28:44 40° W 22:33:30 10° NNW visible
29 Apr 5.0 20:11:30 10° E 20:13:38 13° ENE 20:16:01 10° NNE visible
29 Apr 2.9 21:49:55 37° SSE 21:52:01 87° W 21:57:09 10° NNW visible
29 Apr 5.6 23:31:22 10° W 23:31:55 10° W 23:32:07 10° W visible
30 Apr 3.5 21:12:47 23° SE 21:15:29 43° ENE 21:20:19 10° N visible
30 Apr 4.8 22:52:59 20° WSW 22:54:45 23° W 22:58:43 10° NW visible
01 May 4.4 20:35:39 11° ESE 20:39:08 21° ENE 20:42:59 10° NNE visible
01 May 3.6 22:15:51 32° SSW 22:17:51 50° W 22:22:48 10° NNW visible
02 May 2.9 21:38:43 31° SSE 21:41:12 75° ENE 21:46:18 10° N visible
02 May 5.4 23:18:56 11° WSW 23:20:54 13° W 23:23:08 10° WNW visible
03 May 3.8 21:01:35 18° ESE 21:04:43 35° ENE 21:09:20 10° N visible
03 May 4.5 22:41:48 22° SW 22:43:49 29° W 22:48:11 10° NW visible
04 May 4.7 20:25:12 10° ESE 20:28:25 18° ENE 20:31:47 10° NNE visible
04 May 3.3 22:04:40 32° S 22:07:00 64° W 22:12:03 10° NNW visible
05 May 3.1 21:27:32 25° SE 21:30:23 60° ENE 21:35:25 10° N visible
05 May 5.2 23:07:44 14° WSW 23:09:54 17° W 23:13:02 10° NW visible
06 May 4.1 20:50:24 13° ESE 20:53:58 29° ENE 20:58:18 10° N visible
06 May 4.2 22:30:37 24° SW 22:32:54 36° W 22:37:33 10° NNW visible
